www.pogodaiklimat.ru

Погода и климат >> Архив погоды >> Мьянма >> Катха


ПОГОДА в Катхе

  • Прогноз погоды в Катхе
  • Монитор погоды в Катхе

АРХИВ ПОГОДЫ в Катхе

Время (UTC), дата Ветер
(напр.,м/с)
 
Видим.   Явления Облачность Т
(С)
Тd
(С)
f
(%)
Тe
(С)
Тes
(С)
Комфортность P
(гПа)
Po
(гПа)
Тmin
(С)
Tmax
(С)
R
(мм)
R24
(мм)
S
(см)
00 14.03 штиль 0 4000 м ясно +18.0 +16.5 91 +18 +18 1014.0 1002.8 +16.3
03 14.03 ЮВ 3 6000 м ясно +24.5 +20.7 79 +30 +40 очень
душно
1015.8 1004.8
06 14.03 СВ 3 12 км ясно +30.0 +23.9 70 +41 +56 опасность
перегрева
1013.2 1002.4
09 14.03 СВ 1 11 км ясно +32.0 +26.5 73 +49 +57 опасность
перегрева
1009.8 999.1
12 14.03 штиль 0 3000 м ясно +27.5 +23.7 80 +38 +38 очень
душно
1009.9 999.1 +33.1
03 15.03 ЮВ 2 6000 м ясно +25.0 +21.9 83 +32 +43 очень
душно
1015.8 1004.8
06 15.03 СВ 1 11 км ясно +31.0 +25.4 72 +45 +66 опасность
перегрева
1013.6 1002.8
09 15.03 ЮВ 1 11 км ясно +34.0 +27.9 71 +55 +63 опасность
перегрева
1009.2 998.6
12 15.03 штиль 0 3000 м ясно +29.9 +25.3 76 +43 +43 опасность
перегрева
1008.6 997.9 +34.7
00 16.03 штиль 0 4000 м 1/1 1000 м
[Cu hum]
+19.1 +19.0 99 +21 +21 комфорт 1012.6 1001.4 +16.8
03 16.03 ЮВ 1 5000 м 6/3 1000 м
[Cu Sc Ac As]
+25.9 +22.9 84 +35 +41 очень
душно
1014.3 1003.3
06 16.03 СВ 3 12 км 1/0
[Ci sp]
+33.1 +27.5 73 +53 +67 опасность
перегрева
1012.3 1001.6
09 16.03 ЮВ 4 11 км 5/1 1000 м
[Cu hum Ac lent Cs]
+33.5 +27.3 70 +52 +56 опасность
перегрева
1009.2 998.6
12 16.03 штиль 0 2000 м ясно +28.0 +23.3 76 +38 +38 очень
душно
1008.9 998.1 +34.5
00 17.03 штиль 0 4000 м ясно +17.0 +16.2 95 +17 +17 1012.8 1001.5 +15.6
03 17.03 ЮВ 5 6000 м ясно +27.0 +21.1 70 +34 +40 очень
душно
1015.9 1005.0
06 17.03 ЮВ 3 12 км ясно +31.1 +18.9 48 +36 +51 опасность
солнечного
удара
1014.3 1003.5
12 17.03 штиль 0 3000 м 1/0
[Ci sp]
+28.0 +20.3 63 +34 +34 очень
душно
1010.1 999.3 +34.0
00 18.03 штиль 0 3000 м ясно +18.5 +17.8 96 +19 +20 1013.3 1002.1 +16.1
03 18.03 ЮВ 4 7000 м ясно +26.5 +18.5 61 +31 +39 душно 1014.6 1003.7
06 18.03 СВ 2 11 км ясно +31.5 +24.3 66 +44 +62 опасность
перегрева
1012.2 1001.5
09 18.03 СЗ 1 10 км 3/0
[Ac lent Cs]
+33.0 +24.4 61 +46 +53 опасность
перегрева
1008.1 997.5
12 18.03 штиль 0 3000 м 3/1 1000 м
[Cu hum Ac lent]
+29.0 +23.0 70 +39 +39 очень
душно
1007.1 996.3 +33.5
00 19.03 штиль 0 3000 м 1/0
[Ac lent]
+17.5 +17.5 100 +17 +18 1011.1 999.9 +16.2 10
03 19.03 СВ 1 6000 м ясно +25.0 +20.4 76 +31 +44 очень
душно
1012.8 1001.8
06 19.03 СВ 3 10 км 1/1 1000 м
[Cu hum]
+29.0 +23.0 70 +39 +53 опасность
солнечного
удара
1011.1 1000.3
09 19.03 СВ 1 10 км 1/0
[Ci sp]
+31.0 +25.4 72 +45 +54 опасность
перегрева
1007.2 996.5
03 20.03 СВ 1 6000 м 3/1 1000 м
[Cu hum Ac lent]
+24.0 +17.4 67 +28 +38 душно 1013.7 1002.7
06 20.03 ЮВ 2 10 км 1/1 1000 м
[Cu med, cong]
+27.5 +18.8 59 +33 +49 очень
душно
1012.6 1001.7
09 20.03 ЮВ 3 10 км 1/1 1000 м
[Cu med, cong]
+29.0 +19.6 57 +35 +40 очень
душно
1009.0 998.2
12 20.03 штиль 0 3000 м 1/0
[Ac lent]
+26.0 +21.5 76 +33 +33 очень
душно
1008.5 997.6 +30.3

 

Местоположение метеостанции Катха (Мьянма): широта 24.17 долгота 96.33 высота над уровнем моря 95 м.

В архиве по умолчанию представлена погода в Катхе за последнюю неделю. Архивные данные за месяц целиком и за предыдущие месяцы, начиная с января 2011 года, Вы можете получить, выбрав интересующий диапазон дат из раскрывающегося списка и нажав кнопку "Ввод!".


*Определитесь, кто Вы:
робот инопланетянин человек

Внимание! Время в таблицах - всемирное. Для получения местного времени необходимо прибавить поправку, которая равна 6.5 ч.

Смотрите также архив погоды в соседних городах и на ближайших метеорологических станциях:

Погода в Банмо (Мьянма) (89 км)
Погода в Могоу (Мьянма) (140 км)
Погода в Жуйли (Юньнань, Китай) (153 км)
Погода в Хомалине (Мьянма) (163 км)
Погода в Мьичине (Мьянма) (172 км)
Погода в Шуэбо (Мьянма) (187 км)
Погода в Лашо (Мьянма) (200 км)
Погода в Молейке (Мьянма) (203 км)
Погода в Хкамти (Мьянма) (213 км)
Погода в Калеве (Мьянма) (233 км)

Пояснения к столбцам:

Ветер - указаны скорость ветра в м/с - средняя за 10 мин, порывы в срок и между сроками (в фигурных скобках) и направление, откуда дует ветер: С - северный, СВ - северо-восточный, В - восточный, ЮВ - юго-восточный, Ю - южный, ЮЗ - юго-западный, З - западный, СЗ - северо-западный.
Видимость - горизонтальная дальность видимости в метрах или километрах. При видимости от 1 до 10 км при отсутствии осадков обычно наблюдается дымка, при ухудшении видимости до 1 км и менее - туман. В сухую погоду видимость может ухудшаться дымом, пылью или мглою.
Явления - указаны атмосферные явления, наблюдавшиеся в срок или в последний час перед сроком; фигурными скобками обозначены явления, наблюдавшиеся между сроками (за 1-3 часа до срока); квадратными скобками обозначены град или гололедные отложения с указанием их диаметра в мм.
Облачность - указаны через наклонную черту общая и нижняя облачность в баллах и высота нижней границы облаков в метрах; квадратными скобками обозначены формы облаков: Ci - перистые, Cs - перисто-слоистые, Cc - перисто-кучевые, Ac - высококучевые, As - высокослоистые, Sc - слоисто-кучевые, Ns - слоисто-дождевые, Cu - кучевые, Cb - кучево-дождевые. Подробнее классификацию облаков см. в Атласе облаков (PDF).
T - Температура воздуха - температура, измеренная на высоте 2 м над землей.
Td - Температура точки росы - температура, при понижении до которой содержащийся в воздухе водяной пар достигнет насыщения.
f - Относительная влажность воздуха - влажноcть воздуха, измеренная на высоте 2 м над землей.
Te - Эффективная температура - температура, которую ощущает одетый по сезону человек в тени. Характеристика душности погоды. При расчете учитывается влияние влажности воздуха и скорости ветра на теплоощущения человека.
Tes - Эффективная температура на солнце - температура, которую ощущает человек, с поправкой на солнечный нагрев. Характеристика знойности погоды. Зависит от высоты солнца над горизонтом, облачности и скорости ветра. Ночью, в пасмурную погоду, а также при ветре 12 м/с и более поправка равна нулю.
P - Атмосферное давление - приведенное к уровню моря атмосферное давление.
Po - Атмосферное давление - измеренное на уровне метеостанции атмосферное давление.
Tmin - Минимальная температура - минимум температуры воздуха на высоте 2 м над землей.
Tmax - Максимальная температура - максимум температуры воздуха на высоте 2 м над землей.
R - Количество осадков - Количество выпавших осадков за период времени, мм. При наведении курсора мыши на число - период времени, за который выпало указанное количество осадков.
R24 - Количество осадков - Количество выпавших осадков за 24 часа, мм.
S - Снежный покров - Высота снежного покрова, см. При наведении курсора мыши на число - состояние снежного покрова и степень покрытия местности в баллах.